date,batt_volt,AirTemp_C,Solar_kW,RH,Manual_BP,StationID,WS_ms,PTemp,WS_15min_max,Prog_Sig,Solar_Raw,Bar_mbar,Solar_MJ,Max_WS_2min,Pressure_Raw,Rain_mm,WD_15min_ave,Max_AirTemp_1min,WindDir,WS_15min_med,WS_15min_ave,Elevation_Correction
2017-03-01T00:08:13Z,13.24181,-0.7869644,0.0,76.05158,0,1156,3.0576,1.649029,,43690,0.0,1026.699,0.0,3.116,1024.898,0,,-0.55,105.7293,,,1.80078
2017-03-01T00:23:11Z,13.24733,-1.261528,0.0,75.71302,0,1156,3.4888,1.542843,,43690,0.0,1026.699,0.0,3.43,1024.898,0,,-1.261,105.9229,,,1.80078
2017-03-01T00:38:14Z,13.25301,-0.8193359,0.0,68.93083,0,1156,2.9596,1.350807,,43690,0.0,1026.699,0.0,3.528,1024.898,0,,-0.9550001,101.8077,,,1.80078
2017-03-01T00:53:12Z,13.25417,-0.8173142,0.0,65.40625,0,1156,2.7244,1.244621,,43690,0.0,1026.699,0.0,3.763,1024.898,0,,-0.6820001,117.734,,,1.80078
2017-03-01T01:08:13Z,13.26538,0.1692619,0.0,64.15546,0,1156,3.5084,1.287548,,43690,0.0,1026.86,0.0,5.37,1025.059,0,,0.374,105.409,,,1.80078
2017-03-01T01:23:15Z,13.25887,-0.2757454,0.0,69.88213,0,1156,3.8024,1.393734,,43690,0.0,1026.86,0.0,4.155,1025.059,0,,-0.241,95.61978,,,1.80078
2017-03-01T01:38:14Z,13.24753,-0.3113251,0.0,73.33925,0,1156,3.8612,1.479584,,43690,0.0,1026.86,0.0,3.9,1025.059,0,,-0.243,106.1167,,,1.80078
2017-03-01T01:53:13Z,13.24211,-0.1762276,0.0,77.88364,0,1156,3.0772,1.522511,,43690,0.0,1026.86,0.0,3.43,1025.059,0,,-0.074,107.4879,,,1.80078
2017-03-01T02:08:18Z,13.24182,0.1635132,0.0,80.80194,0,1156,4.41,1.58577,,43690,0.0,1027.025,0.0,4.684,1025.224,0,,0.096,106.55,,,1.80078
2017-03-01T02:23:14Z,13.24181,0.06107712,0.0,82.22528,0,1156,3.7632,1.777805,,43690,0.0,1027.025,0.0,5.096,1025.224,0,,0.129,100.2863,,,1.80078
2017-03-01T02:38:17Z,13.23076,0.4681244,0.0,82.80193,0,1156,4.8216,2.010509,,43690,0.0,1027.025,0.0,5.253,1025.224,0,,0.502,101.3942,,,1.80078
2017-03-01T02:53:15Z,13.21972,0.5020485,0.0,82.56448,0,1156,3.5672,2.374249,,43690,0.0,1027.025,0.0,5.37,1025.224,0,,0.6720001,110.4498,,,1.80078
2017-03-01T03:08:15Z,13.20867,0.2306786,0.0,83.98917,0,1156,5.1156,2.67247,,43690,0.0,1025.804,0.0,5.41,1024.003,0,,0.299,101.7314,,,1.80078
2017-03-01T03:23:16Z,13.21419,0.4002838,0.0,85.68523,0,1156,3.7044,2.864506,,43690,0.0,1025.804,0.0,5.233,1024.003,0,,0.57,105.7775,,,1.80078
2017-03-01T03:38:17Z,13.21419,0.5359688,0.0,85.82092,0,1156,4.1748,3.013615,,43690,0.0,1025.804,0.0,6.233,1024.003,0,,0.604,110.498,,,1.80078
2017-03-01T03:53:17Z,13.20867,0.4681244,0.0,86.49934,0,1156,5.5272,3.099468,,43690,0.0,1025.804,0.0,5.645,1024.003,0,,0.536,96.6737,,,1.80078
2017-03-01T04:08:18Z,13.20867,0.5020485,0.0,86.53327,0,1156,5.7428,3.185318,,43690,0.0,1025.071,0.0,6.37,1023.27,0,,0.638,97.2758,,,1.80078
2017-03-01T04:23:18Z,13.20314,0.5020485,0.0,87.07601,0,1156,5.39,3.314095,,43690,0.0,1025.071,0.0,7.428001,1023.27,0,,0.638,94.98781,,,1.80078
2017-03-01T04:38:18Z,13.20314,0.5688934,0.0,87.37915,0,1156,4.9,3.42028,,43690,0.0,1025.071,0.0,5.331,1023.27,0,,0.7050001,93.73314,,,1.80078
2017-03-01T04:53:23Z,13.19711,0.6345902,0.0,87.78157,0,1156,7.1344,3.526466,,43690,0.0,1025.071,0.0,6.899,1023.27,0,,0.669,101.4104,,,1.80078
2017-03-01T05:08:23Z,13.19083,0.4294739,0.0,88.1851,0,1156,6.3504,3.655243,,43690,0.0,1024.549,0.0,6.272,1022.748,0,,0.735,101.2138,,,1.80078
2017-03-01T05:23:21Z,13.18988,0.4960365,0.0,88.25016,0,1156,5.8604,3.72076,,43690,0.0,1024.549,0.0,7.095,1022.748,0,,0.496,82.04246,,,1.80078
2017-03-01T05:38:23Z,13.19523,0.3939285,0.0,88.75812,0,1156,5.8408,3.741093,,43690,0.0,1024.549,0.0,5.625,1022.748,0,,0.496,124.1101,,,1.80078
2017-03-01T05:53:22Z,13.20136,0.426918,0.0,88.89174,0,1156,2.7048,3.677837,,43690,0.0,1024.549,0.0,6.468,1022.748,0,,0.596,94.0075,,,1.80078
2017-03-01T06:08:25Z,13.19521,0.495163,0.0,89.19788,0,1156,5.6056,3.677837,,43690,0.0,1023.434,0.0,5.586,1021.634,0,,0.597,100.1729,,,1.80078
2017-03-01T06:23:24Z,13.19552,0.4950523,0.0,90.07945,0,1156,4.3316,3.69817,,43690,0.0,1023.434,0.0,6.037,1021.634,0,,0.529,125.3122,,,1.80078
2017-03-01T06:38:25Z,13.19538,0.2576828,0.0,90.38478,0,1156,4.6452,3.72076,,43690,0.0,1023.434,0.0,6.076,1021.634,0,,0.393,103.4477,,,1.80078
2017-03-01T06:53:23Z,13.20062,0.2238159,0.0,89.40133,0,1156,4.9784,3.677837,,43690,0.0,1023.434,0.0,6.546,1021.634,0,,0.258,132.7772,,,1.80078
2017-03-01T07:08:26Z,13.2008,0.6316261,0.0,89.06398,0,1156,4.6256,3.677837,,43690,0.0,1021.645,0.0,6.762,1019.844,0,,0.666,134.9231,,,1.80078
2017-03-01T07:23:25Z,13.18985,0.4271278,0.0,88.8922,0,1156,6.0564,3.78402,,43690,0.0,1021.645,0.0,6.762,1019.844,0,,0.496,118.6177,,,1.80078
2017-03-01T07:38:25Z,13.1896,0.7304421,0.0,89.73584,0,1156,6.6248,3.849537,,43690,0.0,1021.645,0.0,7.134,1019.844,0,,0.7650001,108.9083,,,1.80078
2017-03-01T07:53:30Z,13.18954,0.5957909,0.0,90.48418,0,1156,4.2532,3.892464,,43690,0.0,1021.645,0.0,7.154,1019.844,0,,0.7650001,93.47613,,,1.80078
2017-03-01T08:08:29Z,13.18865,0.7963677,0.0,91.02033,0,1156,4.3316,3.93539,,43690,0.0,1021.03,0.0,4.626,1019.229,0,,0.7960001,104.8823,,,1.80078
2017-03-01T08:23:28Z,13.18325,0.8626556,0.0,91.38992,0,1156,2.9792,4.02124,,43690,0.0,1021.03,0.0,6.115,1019.229,0,,0.897,123.7545,,,1.80078
2017-03-01T08:38:28Z,13.17693,0.6923752,0.0,91.69348,0,1156,6.37,4.084499,,43690,0.0,1021.03,0.0,5.684,1019.229,0,,0.8620001,125.871,,,1.80078
2017-03-01T08:53:28Z,13.1821,1.031715,0.0,92.20267,0,1156,2.5676,4.084499,,43690,0.0,1021.03,0.0,6.154,1019.229,0,,1.099,90.3108,,,1.80078
2017-03-01T09:08:29Z,13.1821,1.234573,0.0,92.54042,0,1156,4.2336,4.170353,,43690,0.0,1019.688,0.0,8.8,1017.887,0,,1.336,124.016,,,1.80078
2017-03-01T09:23:29Z,13.18221,1.09869,0.0,92.94678,0,1156,2.3716,4.23587,,43690,0.0,1019.688,0.0,6.468,1017.887,0,,1.234,128.3008,,,1.80078
2017-03-01T09:38:32Z,13.1821,1.166508,0.0,93.21806,0,1156,6.8208,4.29913,,43690,0.0,1019.688,0.0,9.229999,1017.887,0,,1.2,88.35878,,,1.80078
2017-03-01T09:53:33Z,13.1821,1.369968,0.0,93.48934,0,1156,3.332,4.342056,,43690,0.0,1019.688,0.0,7.37,1017.887,0,,1.438,132.3456,,,1.80078
2017-03-01T10:08:33Z,13.1821,1.675156,0.0,93.79454,0,1156,6.9188,4.427906,,43690,0.0,1018.057,0.0,8.979999,1016.257,0,,1.845,87.58835,,,1.80078
2017-03-01T10:23:36Z,13.1821,1.776886,0.0,93.93017,0,1156,3.8808,4.579277,,43690,0.0,1018.057,0.0,5.076,1016.257,0,,1.811,105.7175,,,1.80078
2017-03-01T10:38:34Z,13.17658,2.048164,0.0,93.96408,0,1156,3.8024,4.728386,,43690,0.0,1018.057,0.0,8.09,1016.257,0,,2.082,122.1133,,,1.80078
2017-03-01T10:53:33Z,13.17105,2.048164,0.0,94.13363,0,1156,2.8224,4.902348,,43690,0.0,1018.057,0.0,6.821,1016.257,0,,2.048,100.2282,,,1.80078
2017-03-01T11:08:33Z,13.16553,2.5229,0.0009648548,94.37099,0,1156,5.3704,5.031128,,43690,0.06753983,1016.918,4.824274e-06,6.468,1015.117,0,,2.387,119.802,,,1.80078
2017-03-01T11:23:33Z,13.16001,2.72636,0.0024121,94.26927,0,1156,3.2928,5.268349,,43690,0.168847,1016.918,1.20605e-05,5.919,1015.117,0,,2.862,112.1458,,,1.80078
2017-03-01T11:38:33Z,13.15449,2.963726,0.006753582,94.33709,0,1156,6.174,5.440052,,43690,0.4727508,1016.918,3.376791e-05,7.722001,1015.117,0,,2.998,110.7494,,,1.80078
2017-03-01T11:53:35Z,13.15449,2.760269,0.007235367,94.30318,0,1156,7.742,5.636604,,43690,0.5064757,1016.918,3.617684e-05,7.860001,1015.117,0,,2.76,122.6189,,,1.80078
2017-03-01T12:08:36Z,13.16001,2.590721,0.01109383,94.4049,0,1156,6.1936,5.679531,,43690,0.7765682,1015.127,5.546916e-05,8.66,1013.327,0,,2.692,101.6487,,,1.80078
2017-03-01T12:23:35Z,13.14896,2.657833,0.03086966,94.6068,0,1156,6.7228,5.74279,,43690,2.160876,1015.127,0.0001543483,10.0,1013.327,0,,2.658,93.34097,,,1.80078
2017-03-01T12:38:38Z,13.13702,3.233234,0.03183433,94.6384,0,1156,6.0172,5.982273,,43690,2.228403,1015.127,0.0001591716,9.189999,1013.327,0,,3.37,99.83893,,,1.80078
2017-03-01T12:53:39Z,13.12891,3.460148,0.03328135,94.71736,0,1156,8.0948,6.242084,,43690,2.329694,1015.127,0.0001664067,8.72,1013.327,0,,3.563,67.3456,,,1.80078
2017-03-01T13:08:42Z,13.12245,3.694992,0.05353956,94.27135,0,1156,5.6644,6.569676,,43690,3.747769,1012.682,0.0002676978,7.977,1010.881,0,,3.932,95.88628,,,1.80078
2017-03-01T13:23:42Z,13.11138,4.271206,0.03906941,94.06784,0,1156,4.4492,6.940197,,43690,2.734859,1012.682,0.000195347,8.72,1010.881,0,,4.203,108.1126,,,1.80078
2017-03-01T13:38:42Z,13.0893,4.135612,0.09887427,93.62716,0,1156,3.3712,7.290378,,43690,6.921199,1012.682,0.0004943713,6.311,1010.881,0,,4.407,92.85359,,,1.80078
2017-03-01T13:53:42Z,13.08378,5.016968,0.1306924,92.8136,0,1156,7.271599,7.839374,,43690,9.148466,1012.682,0.0006534618,4.43,1010.881,0,,5.39,104.0451,,,1.80078
2017-03-01T14:08:42Z,13.07274,6.474087,0.167324,92.67698,0,1156,1.0192,8.435818,,43690,11.71268,1010.723,0.0008366201,3.567,1008.922,0,,6.406,321.6868,,,1.80078
2017-03-01T14:23:42Z,13.04821,7.687618,0.2786978,89.57951,0,1156,0.8624,9.258182,,43690,19.50885,1010.723,0.001393489,6.174,1008.922,0,,7.518,33.78602,,,1.80078
2017-03-01T14:38:40Z,13.03525,7.374122,0.1470489,87.22532,0,1156,0.784,10.10992,,43690,10.29343,1010.723,0.0007352446,3.685,1008.922,0,,7.442,124.2209,,,1.80078
2017-03-01T14:53:40Z,13.0352,7.475453,0.09882942,86.41142,0,1156,3.136,10.51659,,43690,6.91806,1010.723,0.0004941471,5.292,1008.922,0,,7.509,52.97934,,,1.80078
2017-03-01T15:08:45Z,13.02958,7.507599,0.07278586,86.47603,0,1156,3.8416,10.74251,,43690,5.09501,1009.412,0.0003639292,2.666,1007.611,0,,7.473001,133.4059,,,1.80078
2017-03-01T15:23:42Z,13.02282,7.435135,0.1282164,86.87406,0,1156,0.3332,10.87807,,43690,8.975148,1009.412,0.000641082,2.979,1007.611,0,,7.537,290.0719,,,1.80078
2017-03-01T15:38:45Z,13.02624,7.804241,0.09013641,86.90141,0,1156,0.5096,10.9707,,43690,6.309548,1009.412,0.000450682,2.705,1007.611,0,,7.769001,0.07216374,,,1.80078
2017-03-01T15:53:45Z,13.01492,7.69973,0.03807902,87.13331,0,1156,1.2348,11.10625,,43690,2.665531,1009.412,0.0001903951,2.92,1007.611,0,,7.767,56.74133,,,1.80078
2017-03-01T16:08:46Z,13.02019,7.731724,0.08146018,87.67189,0,1156,0.6272,11.12884,,43690,5.702212,1007.903,0.0004073009,2.881,1006.102,0,,7.8,12.26661,,,1.80078
2017-03-01T16:23:47Z,13.00989,7.868076,0.04916531,88.14772,0,1156,0.8428,11.24407,,43690,3.441572,1007.903,0.0002458265,2.019,1006.102,0,,7.935001,26.69839,,,1.80078
2017-03-01T16:38:43Z,13.0147,7.63179,0.04771927,88.48807,0,1156,0.686,11.31184,,43690,3.340349,1007.903,0.0002385964,2.666,1006.102,0,,7.767,64.1735,,,1.80078
2017-03-01T16:53:45Z,13.01494,7.801346,0.06217966,88.92879,0,1156,0.2744,11.31184,,43690,4.352576,1007.903,0.0003108983,1.705,1006.102,0,,7.869001,89.30923,,,1.80078
2017-03-01T17:08:45Z,13.01499,5.733307,0.09784862,89.6034,0,1156,2.5676,11.24407,,43690,6.849403,1005.846,0.0004892431,4.312,1004.045,0,,5.868,104.1225,,,1.80078
2017-03-01T17:23:47Z,13.02563,5.090183,0.06892784,91.77258,0,1156,6.5464,10.65214,,43690,4.824949,1005.846,0.0003446392,7.036,1004.045,0,,5.226,97.12446,,,1.80078
2017-03-01T17:38:47Z,13.04552,5.508785,0.02072902,92.84741,0,1156,2.6852,10.10992,,43690,1.451031,1005.846,0.0001036451,4.782,1004.045,0,,5.542,101.1681,,,1.80078
2017-03-01T17:53:48Z,13.05173,5.509968,0.02362253,93.29035,0,1156,4.3904,9.682926,,43690,1.653577,1005.846,0.0001181126,5.135,1004.045,0,,5.578,113.1043,,,1.80078
2017-03-01T18:08:47Z,13.05175,5.476108,0.03230038,93.73094,0,1156,4.0376,9.414074,,43690,2.261027,1004.288,0.0001615019,5.606,1002.487,0,,5.578,108.6293,,,1.80078
2017-03-01T18:23:49Z,13.05175,5.916638,0.04435266,93.93426,0,1156,3.7632,9.346294,,43690,3.104686,1004.288,0.0002217633,5.331,1002.487,0,,6.018,102.1813,,,1.80078
2017-03-01T18:38:50Z,13.05175,5.78109,0.0496557,93.86648,0,1156,5.1156,9.368885,,43690,3.475899,1004.288,0.0002482785,5.919,1002.487,0,,5.815,110.2172,,,1.80078
2017-03-01T18:53:50Z,13.04071,6.086071,0.04049591,94.00203,0,1156,3.234,9.459255,,43690,2.834713,1004.288,0.0002024795,4.449,1002.487,0,,6.052,109.6157,,,1.80078
2017-03-01T19:08:49Z,13.04071,6.255505,0.09979436,93.7987,0,1156,2.9204,9.682926,,43690,6.985605,1002.255,0.0004989718,5.468,1000.454,0,,6.425,145.7292,,,1.80078
2017-03-01T19:23:52Z,13.02968,6.662148,0.08822363,93.93426,0,1156,4.4492,9.861408,,43690,6.175654,1002.255,0.0004411181,5.468,1000.454,0,,6.730001,114.2833,,,1.80078
2017-03-01T19:38:49Z,13.02416,5.950523,0.08533066,93.86648,0,1156,5.0372,10.04215,,43690,5.973146,1002.255,0.0004266533,5.468,1000.454,0,,6.052,93.80854,,,1.80078
2017-03-01T19:53:53Z,13.02416,6.797695,0.05110308,94.10369,0,1156,5.1744,10.10992,,43690,3.577216,1002.255,0.0002555154,5.429,1000.454,0,,6.832,87.72144,,,1.80078
2017-03-01T20:08:52Z,13.02416,7.068786,0.08147394,93.83259,0,1156,4.5276,10.29066,,43690,5.703176,1000.628,0.0004073697,4.92,998.8275,0,,7.170001,110.6984,,,1.80078
2017-03-01T20:23:55Z,13.01864,6.933239,0.07954554,93.66316,0,1156,5.3704,10.44881,,43690,5.568187,1000.628,0.0003977276,6.39,998.8275,0,,7.137001,105.9346,,,1.80078
2017-03-01T20:38:56Z,13.01864,6.628258,0.0882221,93.86648,0,1156,6.2916,10.44881,,43690,6.175547,1000.628,0.0004411104,6.938,998.8275,0,,6.696,105.4775,,,1.80078
2017-03-01T20:53:51Z,13.01858,6.729919,0.09979178,94.13758,0,1156,6.0172,10.42622,,43690,6.985425,1000.628,0.0004989589,6.821,998.8275,0,,6.798,105.0203,,,1.80078
2017-03-01T21:08:56Z,13.02968,6.762592,0.03326372,93.99959,0,1156,5.4488,10.44881,,43690,2.32846,998.0258,0.0001663186,5.566,996.225,0,,6.830001,102.6598,,,1.80078
2017-03-01T21:23:53Z,13.02968,6.831558,0.0149448,94.37474,0,1156,5.194,10.42622,,43690,1.046136,998.0258,7.4724e-05,5.9,996.225,0,,6.832,103.3121,,,1.80078
2017-03-01T21:38:53Z,13.02968,6.662148,0.007231291,94.47644,0,1156,6.781599,10.35844,,43690,0.5061904,998.0258,3.615645e-05,7.232,996.225,0,,6.696,102.4219,,,1.80078
2017-03-01T21:53:58Z,13.04071,6.594345,0.0009641874,94.81526,0,1156,5.6448,10.22288,,43690,0.06749313,998.0258,4.820938e-06,7.977,996.225,0,,6.662,102.0128,,,1.80078
2017-03-01T22:08:59Z,13.03519,7.102676,0.0,94.91697,0,1156,4.1748,10.20029,,43690,0.0,996.6432,0.0,7.899,994.8424,0,,7.272,95.42053,,,1.80078
2017-03-01T22:23:56Z,13.02968,7.034901,0.0,94.74754,0,1156,7.016799,10.26807,,43690,0.0,996.6432,0.0,6.605,994.8424,0,,7.238,100.4731,,,1.80078
2017-03-01T22:38:57Z,13.03519,6.831581,0.0,94.81531,0,1156,6.762,10.26807,,43690,0.0,996.6432,0.0,6.919,994.8424,0,,6.865,104.6594,,,1.80078
2017-03-01T22:53:59Z,13.04071,6.933239,0.0,95.05252,0,1156,6.3308,10.15511,,43690,0.0,996.6432,0.0,6.997,994.8424,0,,7.001001,104.6594,,,1.80078
2017-03-01T23:09:01Z,13.04071,6.458824,0.0,95.22195,0,1156,6.5464,10.04215,,43690,0.0,994.61,0.0,7.291,992.8092,0,,6.527,104.4188,,,1.80078
2017-03-01T23:24:02Z,13.05175,6.187729,0.0,95.59471,0,1156,7.859599,9.793629,,43690,0.0,994.61,0.0,8.229999,992.8092,0,,6.256,101.1467,,,1.80078
2017-03-01T23:39:00Z,13.05175,6.255505,0.0,95.93358,0,1156,6.5464,9.615146,,43690,0.0,994.61,0.0,8.7,992.8092,0,,6.391,104.0098,,,1.80078
2017-03-01T23:54:01Z,13.04623,6.28939,0.0,96.1369,0,1156,6.2524,9.592556,,43690,0.0,994.61,0.0,7.174,992.8092,0,,6.391,102.6865,,,1.80078
2017-03-02T00:09:02Z,13.04623,6.153843,0.0,96.30634,0,1156,7.761599,9.547367,,43690,0.0,993.3087,0.0,7.703001,991.5079,0,,6.256,109.7601,,,1.80078
2017-03-02T00:24:03Z,13.04623,5.950523,0.0,96.44188,0,1156,6.174,9.524777,,43690,0.0,993.3087,0.0,7.507001,991.5079,0,,6.12,98.45204,,,1.80078
2017-03-02T00:39:04Z,13.04071,6.119957,0.0,96.54354,0,1156,5.0568,9.502186,,43690,0.0,993.3087,0.0,5.998,991.5079,0,,6.188,126.4575,,,1.80078
2017-03-02T00:54:04Z,13.04623,6.255505,0.0,96.71298,0,1156,5.488,9.547367,,43690,0.0,993.3087,0.0,5.135,991.5079,0,,6.323,103.0715,,,1.80078
2017-03-02T01:09:03Z,13.05175,6.391052,0.0,96.81464,0,1156,2.8028,9.615146,,43690,0.0,991.4382,0.0,3.528,989.6374,0,,6.493,114.8607,,,1.80078
2017-03-02T01:24:05Z,13.04071,8.932564,0.0,97.18738,0,1156,5.3116,9.861408,,43690,0.0,991.4382,0.0,4.782,989.6374,0,,8.8,238.8882,,,1.80078
2017-03-02T01:39:05Z,13.01312,9.915279,0.0,97.08573,0,1156,7.938,10.58436,,43690,0.0,991.4382,0.0,10.23,989.6374,0,,10.22,246.2745,,,1.80078
2017-03-02T01:54:06Z,13.01031,7.42963,0.0,96.72258,0,1156,6.174,10.99329,,43690,0.0,991.4382,0.0,6.978,989.6374,0,,7.43,276.2556,,,1.80078
2017-03-02T02:09:08Z,13.01465,6.852753,0.0,96.72061,0,1156,3.0576,10.9481,,43690,0.0,990.827,0.0,4.038,989.0262,0,,7.056,288.4449,,,1.80078
2017-03-02T02:24:05Z,13.02043,7.498047,0.0,96.8933,0,1156,5.6252,10.74251,,43690,0.0,990.827,0.0,6.625,989.0262,0,,7.6,300.5298,,,1.80078
2017-03-02T02:39:07Z,13.02196,7.298096,0.0,96.90011,0,1156,8.5456,10.69733,,43690,0.0,990.827,0.0,8.269999,989.0262,0,,7.434001,283.8323,,,1.80078
2017-03-02T02:54:10Z,13.02296,7.368774,0.0,96.93997,0,1156,5.9192,10.65214,,43690,0.0,990.827,0.0,6.723001,989.0262,0,,7.437,287.5305,,,1.80078
2017-03-02T03:09:07Z,13.03443,6.354065,0.0,96.87593,0,1156,3.4496,10.4714,,43690,0.0,990.6317,0.0,5.076,988.8309,0,,6.59,268.3674,,,1.80078
2017-03-02T03:24:07Z,13.04066,6.153671,0.0,96.88205,0,1156,4.6648,10.20029,,43690,0.0,990.6317,0.0,6.056,988.8309,0,,6.289,282.2666,,,1.80078
2017-03-02T03:39:12Z,13.03519,6.899353,0.0,97.11962,0,1156,7.056,10.08733,,43690,0.0,990.6317,0.0,8.08,988.8309,0,,7.069,288.5232,,,1.80078
2017-03-02T03:54:09Z,13.02968,6.729919,0.0,97.11962,0,1156,6.2916,10.06474,,43690,0.0,990.6317,0.0,7.330001,988.8309,0,,6.798,300.1199,,,1.80078
2017-03-02T04:09:12Z,13.03519,6.560486,0.0,97.08573,0,1156,4.4688,10.01955,,43690,0.0,990.2996,0.0,7.703001,988.4988,0,,6.594,298.0508,,,1.80078
2017-03-02T04:24:13Z,13.04071,7.170448,0.0,97.22127,0,1156,4.8608,10.01955,,43690,0.0,990.2996,0.0,7.624001,988.4988,0,,7.238,302.0447,,,1.80078
2017-03-02T04:39:11Z,13.02968,7.373768,0.0,97.28905,0,1156,8.3104,10.06474,,43690,0.0,990.2996,0.0,9.189999,988.4988,0,,7.374001,305.4371,,,1.80078
2017-03-02T04:54:13Z,13.02968,6.865467,0.0,97.18738,0,1156,6.4484,10.15511,,43690,0.0,990.2996,0.0,6.762,988.4988,0,,7.035,294.8509,,,1.80078
2017-03-02T05:09:13Z,13.02968,6.458824,0.0,97.22127,0,1156,9.3492,10.13251,,43690,0.0,989.0797,0.0,9.74,987.2789,0,,6.527,286.8631,,,1.80078
2017-03-02T05:24:12Z,13.03519,6.797695,0.0,97.32294,0,1156,7.3304,10.01955,,43690,0.0,989.0797,0.0,9.21,987.2789,0,,6.899,299.4463,,,1.80078
2017-03-02T05:39:14Z,13.03519,6.086071,0.0,97.18738,0,1156,8.7808,9.974369,,43690,0.0,989.0797,0.0,8.86,987.2789,0,,6.289,287.3683,,,1.80078
2017-03-02T05:54:15Z,13.04071,6.28939,0.0,97.28905,0,1156,9.8588,9.793629,,43690,0.0,989.0797,0.0,12.21,987.2789,0,,6.425,285.8285,,,1.80078
2017-03-02T06:09:17Z,13.04623,5.679428,0.0,97.22127,0,1156,9.1924,9.637738,,43690,0.0,989.5676,0.0,12.13,987.7669,0,,5.747,283.0376,,,1.80078
2017-03-02T06:24:16Z,13.04623,5.374447,0.0,97.22127,0,1156,5.684,9.414074,,43690,0.0,989.5676,0.0,7.076,987.7669,0,,5.476,290.472,,,1.80078
2017-03-02T06:39:15Z,13.06279,4.79837,0.0,97.22127,0,1156,5.5272,9.145222,,43690,0.0,989.5676,0.0,6.096,987.7669,0,,4.968,294.3697,,,1.80078
2017-03-02T06:54:14Z,13.06307,5.2071,0.0,97.29354,0,1156,5.2332,8.944149,,43690,0.0,989.5676,0.0,6.468,987.7669,0,,5.241,291.2313,,,1.80078
2017-03-02T07:09:14Z,13.0645,5.956558,0.0,97.43739,0,1156,4.3316,8.856037,,43690,0.0,989.5346,0.0,5.841,987.7339,0,,6.093,288.6092,,,1.80078
2017-03-02T07:24:19Z,13.05395,5.211067,0.0,97.33597,0,1156,5.3312,8.96674,,43690,0.0,989.5346,0.0,6.037,987.7339,0,,5.346,296.7673,,,1.80078
2017-03-02T07:39:18Z,13.06479,4.837681,0.0,97.33471,0,1156,4.9784,8.878628,,43690,0.0,989.5346,0.0,5.782,987.7339,0,,5.041,278.4759,,,1.80078
2017-03-02T07:54:21Z,13.05912,5.245903,0.0,97.3719,0,1156,4.6256,8.810856,,43690,0.0,989.5346,0.0,5.566,987.7339,0,,5.483,279.0147,,,1.80078
2017-03-02T08:09:19Z,13.05947,5.686993,0.0,97.40684,0,1156,4.704,8.833446,,43690,0.0,989.567,0.0,5.174,987.7662,0,,5.755,296.2954,,,1.80078
2017-03-02T08:24:18Z,13.05934,5.143566,0.0,97.33658,0,1156,3.9592,8.878628,,43690,0.0,989.567,0.0,4.861,987.7662,0,,5.314,284.7857,,,1.80078
2017-03-02T08:39:19Z,13.05948,4.906212,0.0,97.40411,0,1156,4.5668,8.878628,,43690,0.0,989.567,0.0,4.782,987.7662,0,,4.974,286.2528,,,1.80078
2017-03-02T08:54:19Z,13.05904,5.11026,0.0,97.40562,0,1156,4.1356,8.810856,,43690,0.0,989.567,0.0,5.057,987.7662,0,,5.144,306.278,,,1.80078
2017-03-02T09:09:21Z,13.05942,5.280365,0.0,97.44091,0,1156,2.7244,8.833446,,43690,0.0,989.2339,0.0,4.096,987.4331,0,,5.382,281.6411,,,1.80078
2017-03-02T09:24:21Z,13.05389,5.653168,0.0,97.47477,0,1156,2.3128,8.878628,,43690,0.0,989.2339,0.0,2.842,987.4331,0,,5.653,308.1352,,,1.80078
2017-03-02T09:39:22Z,13.05361,5.414623,0.0,97.47198,0,1156,2.5088,8.98933,,43690,0.0,989.2339,0.0,3.94,987.4331,0,,5.549,291.8838,,,1.80078
2017-03-02T09:54:22Z,13.05321,5.749199,0.0,97.5644,0,1156,2.352,9.034519,,43690,0.0,989.2339,0.0,2.764,987.4331,0,,5.784,289.6907,,,1.80078
2017-03-02T10:09:22Z,13.04681,5.951214,0.0,97.52773,0,1156,0.0588,9.167812,,43690,0.0,988.6062,0.0,1.254,986.8055,0,,5.985,307.968,,,1.80078
2017-03-02T10:24:23Z,13.04103,5.61182,0.0,97.52661,0,1156,0.9408,9.278515,,43690,0.0,988.6062,0.0,1.078,986.8055,0,,5.68,121.1648,,,1.80078
2017-03-02T10:39:25Z,13.04072,5.713337,0.0,97.5263,0,1156,1.5092,9.323704,,43690,0.0,988.6062,0.0,1.784,986.8055,0,,5.984,94.12134,,,1.80078
2017-03-02T10:54:26Z,13.05175,5.035599,0.000964209,97.45853,0,1156,1.372,9.213002,,43690,0.06749463,988.6062,4.821045e-06,1.607,986.8055,0,,5.069,106.9211,,,1.80078
2017-03-02T11:09:27Z,13.05175,5.442242,0.00241065,97.49242,0,1156,3.6848,9.100041,,43690,0.1687455,988.2665,1.205325e-05,3.156,986.4657,0,,5.51,102.9994,,,1.80078
2017-03-02T11:24:28Z,13.05756,5.612316,0.003856963,97.59544,0,1156,2.5284,9.079701,,43690,0.2699874,988.2665,1.928481e-05,3.097,986.4657,0,,5.68,97.46701,,,1.80078
2017-03-02T11:39:28Z,13.05178,6.256111,0.01060655,97.66309,0,1156,3.4104,9.167812,,43690,0.7424582,988.2665,5.303272e-05,4.273,986.4657,0,,6.324,107.8367,,,1.80078
2017-03-02T11:54:28Z,13.04624,6.357189,0.00530312,97.66186,0,1156,2.4304,9.368885,,43690,0.3712184,988.2665,2.65156e-05,3.9,986.4657,0,,6.391,92.96649,,,1.80078
2017-03-02T12:09:26Z,13.04072,6.458847,0.0250689,97.72962,0,1156,2.5676,9.479595,,43690,1.754823,987.4533,0.0001253445,4.332,985.6525,0,,6.459,90.22368,,,1.80078
2017-03-02T12:24:31Z,13.04072,6.08609,0.01012419,97.72962,0,1156,2.2148,9.615146,,43690,0.7086936,987.4533,5.062097e-05,3.273,985.6525,0,,6.256,143.9008,,,1.80078
2017-03-02T12:39:29Z,13.04072,5.916656,0.03953252,97.62796,0,1156,5.4488,9.660328,,43690,2.767277,987.4533,0.0001976626,5.684,985.6525,0,,6.018,114.7164,,,1.80078
2017-03-02T12:54:30Z,13.04072,6.052204,0.04483476,97.66185,0,1156,3.4888,9.637738,,43690,3.138433,987.4533,0.0002241738,5.664,985.6525,0,,6.018,113.6578,,,1.80078
2017-03-02T13:09:29Z,13.04072,6.08609,0.04676313,97.72962,0,1156,3.4104,9.637738,,43690,3.273419,986.9653,0.0002338156,4.253,985.1645,0,,6.154,121.814,,,1.80078
2017-03-02T13:24:28Z,13.04072,6.391071,0.02458691,97.79739,0,1156,3.0576,9.682926,,43690,1.721084,986.9653,0.0001229346,4.018,985.1645,0,,6.188,122.223,,,1.80078
2017-03-02T13:39:32Z,13.04624,5.984428,0.05592603,97.72962,0,1156,1.9404,9.660328,,43690,3.914822,986.9653,0.0002796302,3.587,985.1645,0,,6.018,100.4731,,,1.80078
2017-03-02T13:54:30Z,13.05175,7.306015,0.03326634,97.79739,0,1156,1.4112,9.705517,,43690,2.328644,986.9653,0.0001663317,2.234,985.1645,0,,7.374001,234.6537,,,1.80078
2017-03-02T14:23:47Z,13.02968,7.746544,0.09641895,97.89906,0,1156,4.0768,10.24548,,43690,6.749326,985.8266,0.0004820948,4.508,984.0258,0,,7.78,281.6182,,,1.80078
2017-03-02T14:38:51Z,13.02416,6.560505,0.03615706,97.83128,0,1156,4.3708,10.4714,,43690,2.530994,985.8266,0.0001807853,4.704,984.0258,0,,6.594,293.3352,,,1.80078
2017-03-02T14:53:49Z,13.0295,6.118828,0.05495507,97.79495,0,1156,4.116,10.35844,,43690,3.846855,985.8266,0.0002747753,4.998,984.0258,0,,6.22,285.629,,,1.80078
2017-03-02T15:08:52Z,13.03519,6.086048,0.03278233,97.76342,0,1156,4.4296,10.24548,,43690,2.294763,985.1734,0.0001639117,4.684,983.3727,0,,6.188,317.6352,,,1.80078
2017-03-02T15:23:50Z,13.03519,5.611656,0.05254824,97.72958,0,1156,5.0764,10.10992,,43690,3.678377,985.1734,0.0002627412,5.076,983.3727,0,,5.679,288.2585,,,1.80078
2017-03-02T15:38:49Z,13.04623,5.171127,0.07858396,97.62791,0,1156,2.2344,9.771038,,43690,5.500877,985.1734,0.0003929198,4.096,983.3727,0,,5.307,273.6543,,,1.80078